Regional Weather Roundup
Issued by NWS

Home | Current Version | Previous Version | Graphics & Text | Print | Product List | Glossary Off
Versions: 1 2 3 4 5 6 7 8 9 10 11 12 13 14 15 16 17 18 19 20 21 22 23 24 25 26 27 28 29 30 31 32 33 34 35 36 37 38 39 40 41 42 43 44 45 46 47 48 49 50

000
ASUS43 KFSD 290810
RWRSD

WEATHER ROUNDUP FOR SOUTH DAKOTA
NATIONAL WEATHER SERVICE SIOUX FALLS SD
300 AM CDT FRI APR 29 2016

NOTE: "FAIR" INDICATES FEW OR NO CLOUDS BELOW 12,000 FEET WITH NO
SIGNIFICANT WEATHER AND/OR OBSTRUCTIONS TO VISIBILITY.


SDZ001>005-009-010-012>017-290900-
NORTHWEST AND NORTH CENTRAL SOUTH DAKOTA

CITY           SKY/WX    TMP DP  RH WIND       PRES   REMARKS
BUFFALO          N/A     37  34  89 SW5       30.06S
FAITH            N/A     36  30  79 NW8       30.13S
MOBRIDGE       CLOUDY    42  39  89 SE5       30.12S
$$

SDZ012>016-024>037-041>051-057-063-072>074-290900-
SOUTHWEST AND SOUTH CENTRAL SOUTH DAKOTA

CITY           SKY/WX    TMP DP  RH WIND       PRES   REMARKS
RAPID CTY ARPT CLOUDY    36  34  92 N7        30.10F
PIERRE         CLOUDY    41  36  82 N6        30.11F
CUSTER         CLOUDY    31  28  89 NW3       30.05F
ELLSWORTH AFB  CLOUDY    37  36  96 N7        30.10F
PHILIP         CLOUDY    39  37  92 W3        30.14S
PINE RIDGE     CLOUDY    37  33  85 NE5       30.10S
WINNER         CLOUDY    42  39  89 CALM      30.12S
$$

SDZ004>011-016>023-039-040-290900-
NORTHEAST SOUTH DAKOTA

CITY           SKY/WX    TMP DP  RH WIND       PRES   REMARKS
ABERDEEN       CLOUDY    38  35  89 SW6       30.17R
WATERTOWN      CLOUDY    37  34  89 CALM      30.14S
BROOKINGS      CLOUDY    36  34  92 CALM      30.14R
SISSETON         N/A     40  38  93 SW3       30.14R
$$

SDZ017-020-022-023-036>040-048>070-290900-
SOUTHEAST SOUTH DAKOTA

CITY           SKY/WX    TMP DP  RH WIND       PRES   REMARKS
SIOUX FALLS    CLOUDY    39  37  92 CALM      30.13S FOG
HURON          CLOUDY    38  36  92 NW3       30.15F
CHAMBERLAIN    CLOUDY    40  38  93 E3        30.13R
MITCHELL       CLOUDY    40  37  89 NE3       30.15F
YANKTON        CLOUDY    39  37  93 E5        30.13F
$$

ABBREVIATIONS USED IN REMARKS
   TC - TEMPERATURE IN CELSIUS
  WCI - WIND CHILL INDEX
   HX - HEAT INDEX
  VSB - VISIBILITY





USA.gov is the U.S. government's official web portal to all federal, state and local government web resources and services.